www.pogodaiklimat.ru

Погода и климат >> Архив погоды >> Аргентина >> Trelew


ПОГОДА в Trelew

  • Прогноз погоды в Trelew
  • Монитор погоды в Trelew
  • Климат города

АРХИВ ПОГОДЫ в Trelew

Время (UTC), дата Ветер
(напр.,м/с)
 
Видим.   Явления Облачность Т
(С)
Тd
(С)
f
(%)
Тe
(С)
Тes
(С)
Комфортность P
(гПа)
Po
(гПа)
Тmin
(С)
Tmax
(С)
R
(мм)
R24
(мм)
S
(см)
18 10.12 З 7 30 км 8/1 1050 м
[Cu hum Ac lent Cs]
+28.8 +5.2 22 +27 +30 жарко 1005.2 1000.3
21 10.12 З 5 30 км 8/3 1050 м
[Cu hum Ac As Cs]
+28.4 +5.1 23 +27 +29 жарко 1003.9 998.9
00 11.12 З 3 30 км 4/1 1050 м
[Cu hum Ac As Cs]
+26.8 +5.9 26 +26 +26 жарко 1003.6 998.7 +22.8 +29.3
03 11.12 З 2 30 км 4/0
[Ac cuf Cs]
+21.2 +5.2 35 +22 +22 комфорт 1005.7 1000.8
06 11.12 З 2 30 км 3/0
[Cs]
+17.0 +4.4 43 +17 +17 1006.8 1001.8
09 11.12 З 2 30 км 5/0
[Ac cuf Cs]
+16.4 +4.7 46 +17 +17 1007.5 1002.5
12 11.12 З 8 30 км 6/1 1200 м
[Sc diur, vesp Ac trans Cs]
+20.4 +4.2 34 +20 +21 1008.7 1003.7 +16.4 +26.8
15 11.12 З 6 30 км 8/1 1200 м
[Sc diur, vesp Ac As Cs]
+22.2 +2.2 27 +22 +26 комфорт 1007.9 1002.9
18 11.12 З 7 30 км 6/4 1050 м
[Cu med, cong Ac As Ci sp]
+25.2 +2.9 23 +24 +27 комфорт 1007.4 1002.4
21 11.12 З 7 30 км осадки на расстоянии 6/5 900 м
[Cu med, cong Ci fib]
+25.8 +1.9 21 +24 +25 комфорт 1006.9 1001.9
00 12.12 В 3 30 км 4/4 1050 м
[Sc diur, vesp Ac cuf]
+18.0 +8.9 55 +18 +18 1009.7 1004.7 +18.0 +27.4
03 12.12 З 2 30 км 1/0
[Ac cuf]
+14.5 +5.0 53 +14 +14 1012.0 1006.9
06 12.12 З 5 30 км ясно +16.6 +2.6 39 +16 +16 1013.0 1008.0
09 12.12 З 5 30 км 1/0
[Ci fib]
+13.9 +1.9 44 +12 +12 1014.6 1009.4
12 12.12 З 6 30 км ясно +16.8 +1.7 36 +16 +19 1015.3 1010.2 +12.8 +18.2
15 12.12 ЮЗ 3 30 км 1/0
[Cs]
+21.3 +3.9 32 +22 +36 комфорт 1013.8 1008.7
18 12.12 З 5 30 км 3/1 1200 м
[Cu hum Ci sp]
+25.4 +1.5 21 +24 +32 комфорт 1011.9 1006.9
21 12.12 З 5 30 км 3/1 1200 м
[Cu hum Ci sp]
+26.8 +3.3 22 +25 +28 комфорт 1009.5 1004.5
00 13.12 СВ 6 30 км 1/0
[Ci]
+22.5 +4.1 30 +23 +23 комфорт 1009.4 1004.4 +16.5 +27.2
03 13.12 СВ 4 30 км ясно +18.0 +5.4 43 +18 +18 1010.1 1005.0
06 13.12 СВ 4 30 км ясно +15.2 +5.2 51 +14 +14 1007.4 1002.4
09 13.12 СВ 5 30 км 4/0
[Ac As Cs]
+10.9 +9 +9 1006.0 1001.0
12 13.12 СЗ 7 30 км 4/0
[Ac cuf Cs]
+23.1 +6.5 34 +24 +25 комфорт 1005.2 1000.2 +14.4 +23.1
15 13.12 З 7 30 км 8/0
[Ac As Cs]
+26.9 +4.1 23 +26 +30 жарко 1005.0 1000.0
18 13.12 В 3 20 км {ливн. осадки} 10/9 1020 м
[Cu Sc Ac As Cs]
+25.4 +6.9 31 +25 +26 комфорт 1003.0 998.0 0.0
21 13.12 В 8 20 км зарница {гроза} 9/4 960 м
[Cb cap As op]
+14.2 +12.6 90 +12 +12 1003.9 998.8
00 14.12 В 3 30 км {гроза} 8/3 1020 м
[Cu med, cong Ac As Cs]
+15.4 +12.9 85 +15 +15 1004.8 999.8 +13.6 +27.4 13
03 14.12 В 1 20 км осадки на расстоянии 10/5 600 м
[Frnb As op]
+14.2 +13.5 96 +14 +14 1005.1 1000.1
06 14.12 З 1 3000 м туман на расстоянии 6/6 450 м
[Frnb]
+12.2 +11.8 97 +12 +12 1004.1 999.0
09 14.12 З 3 30 км {туман} 8/0
[Ac As Cs]
+11.8 +11.0 95 +10 +10 1005.1 1000.0
12 14.12 ЮЗ 2 30 км {туман} 9/0
[Ac As Cs]
+16.0 +9.1 64 +16 +21 1007.6 1002.5 +11.4 +16.0 13
15 14.12 З 8 30 км 6/3 1050 м
[Sc Cs]
+22.2 +7.8 40 +23 +26 комфорт 1007.0 1002.0
18 14.12 ЮЗ 9 30 км 8/8 1020 м
[Cu hum]
+24.4 +4.0 27 +24 +24 комфорт 1006.5 1001.4
21 14.12 В 5 30 км 4/4 1020 м
[Cu hum]
+20.8 +8.8 46 +22 +24 комфорт 1007.7 1002.6
00 15.12 В 4 30 км 3/0
[Ac cuf]
+16.6 +9.2 62 +16 +16 1010.4 1005.3 +15.8 +25.6
03 15.12 СЗ 3 30 км ясно +13.8 +9.6 76 +13 +13 1011.6 1006.5
06 15.12 З 6 30 км ясно +15.7 +3.9 45 +14 +14 1010.7 1005.7
09 15.12 З 4 30 км 3/0
[Ci sp]
+13.7 +1.2 43 +12 +12 1005.7 1010.8
12 15.12 З 7 30 км 3/0
[Ci sp]
+17.8 +2.1 35 +17 +19 1009.6 1004.5 +13.7 +18.0
15 15.12 З 5 30 км 1/0
[Ci fib]
+23.2 +3.7 28 +23 +33 комфорт 1006.8 1001.8
18 15.12 З 8 30 км 4/0
[Ci sp]
+29.3 +5.2 22 +28 +31 жарко 1003.7 998.6
21 15.12 З 10 30 км 6/1 1200 м
[Sc diur, vesp Ac lent Cs]
+29.5 +4.6 21 +28 +28 жарко 1001.0 996.0
00 16.12 З 5 30 км 4/0
[Ac lent Ci sp]
+27.0 +8.7 32 +27 +27 жарко 1000.9 996.0 +17.7 +31.0
03 16.12 З 6 30 км 6/0
[Ac lent Ci sp]
+25.2 +8.2 34 +26 +26 жарко 1001.4 996.5
06 16.12 З 7 30 км 4/0
[Ac lent Ci fib]
+22.0 +8.1 41 +23 +23 комфорт 1000.3 995.4
09 16.12 З 6 30 км 8/3 1020 м
[Sc diur, vesp Ac lent Ci sp]
+21.6 +8.5 43 +23 +23 комфорт 1001.2 996.2
12 16.12 З 9 30 км 8/1 1200 м
[Sc Ac lent Ci sp]
+24.3 +8.7 37 +25 +25 комфорт 1003.0 998.1 +20.0 +27.0
15 16.12 З 8 30 км 9/3 1050 м
[Sc Ac As Cs]
+25.0 +6.3 30 +25 +26 комфорт 1003.2 998.2
18 16.12 Ю 9 20 км слабый ливневой дождь 9/6 960 м
[Cb cap Ac lent Cs]
+23.8 +5.4 30 +24 +24 комфорт 1005.2 1000.2 0.3
21 16.12 Ю 5 20 км слабая морось {ливн. осадки} 10/6 1050 м
[Frnb As op]
+12.8 +8.0 73 +11 +11 1012.3 1007.2
00 17.12 Ю 3 30 км {ливн. осадки, морось} 5/3 1050 м
[Sc Ac cuf Ci sp]
+12.5 +7.4 71 +11 +11 1015.3 1010.2 +11.6 +25.2 0.4
03 17.12 СЗ 3 30 км 3/0
[Ac cuf Ci sp]
+8.8 +7.5 92 +6 +6 1017.7 1012.6
06 17.12 СЗ 3 30 км ясно +7.8 +6.9 94 +5 +5 1018.4 1013.3
09 17.12 С 2 25 км ясно +6.8 +5.9 94 +4 +4 1019.1 1013.8
12 17.12 З 4 30 км ясно +15.7 +7.1 57 +15 +19 1020.0 1014.8 +6.5 +15.7 0.7
15 17.12 З 5 30 км 1/1 1050 м
[Cu hum]
+20.7 +5.0 36 +21 +30 комфорт 1019.4 1014.2

 

Местоположение метеостанции Trelew (Аргентина): широта -43.20 долгота -65.26 высота над уровнем моря 43 м.

В архиве по умолчанию представлена погода в Trelew за последнюю неделю. Архивные данные за месяц целиком и за предыдущие месяцы, начиная с января 2011 года, Вы можете получить, выбрав интересующий диапазон дат из раскрывающегося списка и нажав кнопку "Ввод!".


*Определитесь, кто Вы:
робот инопланетянин человек

Внимание! Время в таблицах - всемирное. Для получения местного времени необходимо прибавить поправку, которая в Trelew равна -3 ч.

Смотрите также архив погоды в соседних городах и на ближайших метеорологических станциях:

Погода в San Antonio Oeste (Аргентина) (270 км)
Погода в Viedma (Аргентина) (321 км)
Погода в Comodoro Rivadavia (Аргентина) (338 км)
Погода в Maquinchao (Аргентина) (359 км)
Погода в Esquel (Аргентина) (479 км)
Погода в Alto Palena (Чили) (529 км)
Погода в Neuquen (Аргентина) (530 км)
Погода в El Bolson (Аргентина) (530 км)
Погода в Futaleufu (Чили) (531 км)
Погода в San Carlos de Bariloche (Аргентина) (537 км)

Пояснения к столбцам:

Ветер - указаны скорость ветра в м/с - средняя за 10 мин, порывы в срок и между сроками (в фигурных скобках) и направление, откуда дует ветер: С - северный, СВ - северо-восточный, В - восточный, ЮВ - юго-восточный, Ю - южный, ЮЗ - юго-западный, З - западный, СЗ - северо-западный.
Видимость - горизонтальная дальность видимости в метрах или километрах. При видимости от 1 до 10 км при отсутствии осадков обычно наблюдается дымка, при ухудшении видимости до 1 км и менее - туман. В сухую погоду видимость может ухудшаться дымом, пылью или мглою.
Явления - указаны атмосферные явления, наблюдавшиеся в срок или в последний час перед сроком; фигурными скобками обозначены явления, наблюдавшиеся между сроками (за 1-3 часа до срока); квадратными скобками обозначены град или гололедные отложения с указанием их диаметра в мм.
Облачность - указаны через наклонную черту общая и нижняя облачность в баллах и высота нижней границы облаков в метрах; квадратными скобками обозначены формы облаков: Ci - перистые, Cs - перисто-слоистые, Cc - перисто-кучевые, Ac - высококучевые, As - высокослоистые, Sc - слоисто-кучевые, Ns - слоисто-дождевые, Cu - кучевые, Cb - кучево-дождевые. Подробнее классификацию облаков см. в Атласе облаков (PDF).
T - Температура воздуха - температура, измеренная на высоте 2 м над землей.
Td - Температура точки росы - температура, при понижении до которой содержащийся в воздухе водяной пар достигнет насыщения.
f - Относительная влажность воздуха - влажноcть воздуха, измеренная на высоте 2 м над землей.
Te - Эффективная температура - температура, которую ощущает одетый по сезону человек в тени. Характеристика душности погоды. При расчете учитывается влияние влажности воздуха и скорости ветра на теплоощущения человека.
Tes - Эффективная температура на солнце - температура, которую ощущает человек, с поправкой на солнечный нагрев. Характеристика знойности погоды. Зависит от высоты солнца над горизонтом, облачности и скорости ветра. Ночью, в пасмурную погоду, а также при ветре 12 м/с и более поправка равна нулю.
P - Атмосферное давление - приведенное к уровню моря атмосферное давление.
Po - Атмосферное давление - измеренное на уровне метеостанции атмосферное давление.
Tmin - Минимальная температура - минимум температуры воздуха на высоте 2 м над землей.
Tmax - Максимальная температура - максимум температуры воздуха на высоте 2 м над землей.
R - Количество осадков - Количество выпавших осадков за период времени, мм. При наведении курсора мыши на число - период времени, за который выпало указанное количество осадков.
R24 - Количество осадков - Количество выпавших осадков за 24 часа, мм.
S - Снежный покров - Высота снежного покрова, см. При наведении курсора мыши на число - состояние снежного покрова и степень покрытия местности в баллах.